• In Deutschland
  • Länderverzeichnis
  • Für 7 Tage
  • Wassertemperatur
  • Satellitenkarten
  • Wetterkarte
  • Widgets
  • user-avatar
    Anmelden

    Stündliche Wetter Freiberg

    Heute, 19 Oktober, Donnerstag

    Zeit Temperatur Niederschläge Wind Luftdruck Luftfeuchtigkeit
    00:00 +11°C° 0 mm 1 m/S 725 mmHg 84%
    01:00 +10°C° 0 mm 2 m/S 725 mmHg 84%
    02:00 +11°C° 0 mm 1 m/S 725 mmHg 83%
    03:00 +11°C° 0 mm 1 m/S 725 mmHg 82%
    04:00 +10°C° 0 mm 1 m/S 725 mmHg 81%
    05:00 +10°C° 0 mm 1 m/S 726 mmHg 81%
    06:00 +10°C° 0 mm 1 m/S 726 mmHg 80%
    07:00 +10°C° 0 mm 1 m/S 726 mmHg 79%
    08:00 +12°C° 0 mm 1 m/S 726 mmHg 73%
    09:00 +14°C° 0 mm 1 m/S 726 mmHg 67%
    10:00 +16°C° 0 mm 1 m/S 727 mmHg 60%
    11:00 +18°C° 0 mm 1 m/S 727 mmHg 56%
    12:00 +20°C° 0 mm 1 m/S 727 mmHg 52%
    13:00 +20°C° 0 mm 2 m/S 727 mmHg 48%
    14:00 +20°C° 0 mm 1 m/S 727 mmHg 51%
    15:00 +20°C° 0 mm 1 m/S 726 mmHg 54%
    16:00 +19°C° 0 mm 1 m/S 726 mmHg 57%
    17:00 +18°C° 0 mm 1 m/S 726 mmHg 61%
    18:00 +15°C° 0 mm 2 m/S 726 mmHg 65%
    19:00 +14°C° 0 mm 2 m/S 726 mmHg 68%
    20:00 +13°C° 0 mm 2 m/S 726 mmHg 69%
    21:00 +13°C° 0 mm 2 m/S 726 mmHg 69%
    22:00 +13°C° 0 mm 2 m/S 726 mmHg 69%
    23:00 +13°C° 0 mm 2 m/S 726 mmHg 69%

    Morgen, 20 Oktober, Freitag

    Zeit Temperatur Niederschläge Wind Luftdruck Luftfeuchtigkeit
    00:00 +12°C° 0 mm 2 m/S 726 mmHg 69%
    01:00 +12°C° 0 mm 2 m/S 726 mmHg 69%
    02:00 +12°C° 0 mm 2 m/S 726 mmHg 69%
    03:00 +12°C° 0 mm 2 m/S 726 mmHg 69%
    04:00 +10°C° 0 mm 2 m/S 726 mmHg 69%
    05:00 +10°C° 0 mm 2 m/S 726 mmHg 69%
    06:00 +10°C° 0 mm 2 m/S 726 mmHg 68%
    07:00 +10°C° 0 mm 2 m/S 727 mmHg 68%
    08:00 +13°C° 0 mm 2 m/S 727 mmHg 64%
    09:00 +15°C° 0 mm 2 m/S 727 mmHg 59%
    10:00 +17°C° 0 mm 2 m/S 727 mmHg 55%
    11:00 +18°C° 0 mm 2 m/S 727 mmHg 52%
    12:00 +19°C° 0 mm 2 m/S 727 mmHg 49%
    13:00 +20°C° 0 mm 2 m/S 727 mmHg 45%
    14:00 +19°C° 0 mm 2 m/S 727 mmHg 49%
    15:00 +18°C° 0 mm 2 m/S 727 mmHg 53%
    16:00 +18°C° 0 mm 2 m/S 727 mmHg 57%
    17:00 +16°C° 0 mm 2 m/S 727 mmHg 61%
    18:00 +15°C° 0 mm 2 m/S 727 mmHg 65%
    19:00 +13°C° 0 mm 2 m/S 727 mmHg 68%
    20:00 +13°C° 0 mm 2 m/S 728 mmHg 71%
    21:00 +13°C° 0 mm 2 m/S 728 mmHg 73%
    22:00 +13°C° 0 mm 2 m/S 728 mmHg 75%
    23:00 +13°C° 0 mm 2 m/S 728 mmHg 77%

    übermorgen, 21 Oktober, Samstag

    Zeit Temperatur Niederschläge Wind Luftdruck Luftfeuchtigkeit
    00:00 +13°C° 0 mm 2 m/S 728 mmHg 79%
    01:00 +13°C° 0 mm 2 m/S 728 mmHg 81%
    02:00 +12°C° 0 mm 2 m/S 728 mmHg 83%
    03:00 +12°C° 0 mm 2 m/S 728 mmHg 85%
    04:00 +10°C° 0 mm 2 m/S 728 mmHg 87%
    05:00 +10°C° 0 mm 2 m/S 728 mmHg 86%
    06:00 +10°C° 0 mm 2 m/S 728 mmHg 86%
    07:00 +10°C° 0 mm 2 m/S 728 mmHg 85%
    08:00 +12°C° 0 mm 3 m/S 728 mmHg 81%
    09:00 +13°C° 0 mm 3 m/S 728 mmHg 77%
    10:00 +14°C° 0 mm 3 m/S 728 mmHg 72%
    11:00 +16°C° 0 mm 3 m/S 728 mmHg 70%
    12:00 +15°C° 0 mm 4 m/S 727 mmHg 68%
    13:00 +17°C° 0 mm 4 m/S 727 mmHg 65%
    14:00 +17°C° 0 mm 4 m/S 727 mmHg 67%
    15:00 +17°C° 0 mm 3 m/S 726 mmHg 68%
    16:00 +17°C° 0 mm 3 m/S 726 mmHg 70%
    17:00 +16°C° 0 mm 3 m/S 726 mmHg 73%
    18:00 +14°C° 0 mm 3 m/S 726 mmHg 76%
    19:00 +13°C° 0 mm 3 m/S 726 mmHg 80%
    20:00 +13°C° 0,4 mm 3 m/S 726 mmHg 83%
    21:00 +12°C° 0,4 mm 3 m/S 726 mmHg 86%
    22:00 +12°C° 0,4 mm 3 m/S 726 mmHg 89%
    23:00 +12°C° 0,3 mm 3 m/S 727 mmHg 89%

    22 Oktober, Sonntag

    Zeit Temperatur Niederschläge Wind Luftdruck Luftfeuchtigkeit
    00:00 +12°C° 0,3 mm 3 m/S 727 mmHg 89%
    01:00 +11°C° 0,3 mm 3 m/S 727 mmHg 88%
    02:00 +11°C° 0,2 mm 3 m/S 727 mmHg 88%
    03:00 +10°C° 0,2 mm 3 m/S 727 mmHg 87%
    04:00 +10°C° 0,2 mm 4 m/S 727 mmHg 86%
    05:00 +10°C° 0,1 mm 3 m/S 727 mmHg 86%
    06:00 +9°C° 0,1 mm 3 m/S 726 mmHg 86%
    07:00 +9°C° 0,1 mm 3 m/S 726 mmHg 85%
    08:00 +8°C° 0 mm 4 m/S 727 mmHg 81%
    09:00 +9°C° 0 mm 5 m/S 727 mmHg 77%
    10:00 +9°C° 0 mm 6 m/S 727 mmHg 73%
    11:00 +9°C° 0 mm 6 m/S 727 mmHg 71%
    12:00 +9°C° 0 mm 6 m/S 727 mmHg 68%
    13:00 +9°C° 0 mm 6 m/S 726 mmHg 66%
    14:00 +9°C° 0 mm 5 m/S 726 mmHg 67%
    15:00 +9°C° 0 mm 5 m/S 726 mmHg 68%
    16:00 +8°C° 0 mm 4 m/S 726 mmHg 69%
    17:00 +8°C° 0 mm 4 m/S 726 mmHg 71%
    18:00 +7°C° 0 mm 4 m/S 726 mmHg 72%
    19:00 +7°C° 0 mm 4 m/S 726 mmHg 73%
    20:00 +6°C° 0 mm 4 m/S 726 mmHg 75%
    21:00 +7°C° 0 mm 3 m/S 726 mmHg 77%
    22:00 +5°C° 0 mm 3 m/S 726 mmHg 78%
    23:00 +5°C° 0 mm 3 m/S 726 mmHg 80%

    23 Oktober, Montag

    Zeit Temperatur Niederschläge Wind Luftdruck Luftfeuchtigkeit
    00:00 +5°C° 0 mm 3 m/S 726 mmHg 82%
    01:00 +5°C° 0 mm 3 m/S 726 mmHg 83%
    02:00 +5°C° 0 mm 3 m/S 726 mmHg 83%
    03:00 +5°C° 0 mm 3 m/S 726 mmHg 83%
    04:00 +5°C° 0 mm 3 m/S 726 mmHg 83%
    05:00 +5°C° 0,1 mm 3 m/S 726 mmHg 84%
    06:00 +5°C° 0,1 mm 3 m/S 727 mmHg 85%
    07:00 +5°C° 0,1 mm 4 m/S 727 mmHg 86%
    08:00 +6°C° 0 mm 4 m/S 727 mmHg 84%
    09:00 +7°C° 0 mm 5 m/S 727 mmHg 81%
    10:00 +7°C° 0 mm 5 m/S 728 mmHg 79%
    11:00 +8°C° 0 mm 5 m/S 728 mmHg 77%
    12:00 +9°C° 0 mm 5 m/S 728 mmHg 74%
    13:00 +9°C° 0 mm 5 m/S 728 mmHg 72%
    14:00 +9°C° 0,1 mm 5 m/S 728 mmHg 73%
    15:00 +9°C° 0,1 mm 5 m/S 729 mmHg 75%
    16:00 +9°C° 0,1 mm 5 m/S 729 mmHg 76%
    17:00 +8°C° 0,1 mm 4 m/S 729 mmHg 79%
    18:00 +8°C° 0,1 mm 4 m/S 729 mmHg 81%
    19:00 +7°C° 0,1 mm 4 m/S 730 mmHg 84%
    20:00 +7°C° 0 mm 4 m/S 730 mmHg 85%
    21:00 +7°C° 0 mm 4 m/S 730 mmHg 87%
    22:00 +7°C° 0 mm 3 m/S 730 mmHg 88%
    23:00 +7°C° 0,1 mm 3 m/S 731 mmHg 89%

    24 Oktober, Dienstag

    Zeit Temperatur Niederschläge Wind Luftdruck Luftfeuchtigkeit
    00:00 +7°C° 0,1 mm 3 m/S 731 mmHg 91%
    01:00 +7°C° 0,1 mm 3 m/S 731 mmHg 92%
    02:00 +8°C° 0,1 mm 3 m/S 731 mmHg 92%
    03:00 +8°C° 0,1 mm 3 m/S 731 mmHg 92%
    04:00 +9°C° 0,1 mm 3 m/S 731 mmHg 92%
    05:00 +9°C° 0,3 mm 3 m/S 731 mmHg 92%
    06:00 +9°C° 0,3 mm 3 m/S 731 mmHg 93%
    07:00 +9°C° 0,3 mm 3 m/S 731 mmHg 93%
    08:00 +9°C° 0,4 mm 3 m/S 731 mmHg 93%
    09:00 +9°C° 0,4 mm 3 m/S 732 mmHg 92%
    10:00 +10°C° 0,4 mm 3 m/S 732 mmHg 91%
    11:00 +10°C° 0,2 mm 3 m/S 732 mmHg 90%
    12:00 +10°C° 0,2 mm 3 m/S 732 mmHg 89%
    13:00 +11°C° 0,2 mm 3 m/S 732 mmHg 87%
    14:00 +11°C° 0,1 mm 3 m/S 732 mmHg 88%
    15:00 +12°C° 0,1 mm 2 m/S 732 mmHg 90%
    16:00 +12°C° 0,1 mm 2 m/S 732 mmHg 91%
    17:00 +10°C° 0 mm 2 m/S 733 mmHg 92%
    18:00 +10°C° 0 mm 2 m/S 733 mmHg 93%
    19:00 +10°C° 0 mm 2 m/S 733 mmHg 94%
    20:00 +11°C° 0 mm 1 m/S 733 mmHg 94%
    21:00 +11°C° 0 mm 1 m/S 734 mmHg 94%
    22:00 +11°C° 0 mm 1 m/S 734 mmHg 94%
    23:00 +11°C° 0 mm 1 m/S 734 mmHg 94%
    Mehr zeigen